UAL2110 KEWR-KAUS

Flight info

Callsign UAL2110
Flight time 3h 42m
Altitude 34000
Route PARKE J6 LRP/N0468F320 J6 MRB/N0457F360 J6 HVQ J78 IIU/N0454F380 PXV SGF EOS TUL SPS ABI/N0454F390 MNTRA DILLO LAIKS4
Aircraft B38M/M-SDE1FGHILORVWXY/HB1

Departure

Time 2026-04-24 11:31
Airport Newark Liberty International Airport (KEWR)

Arrival

Time 2026-04-24 15:13
Airport Austin Bergstrom International Airport (KAUS)
Time Latitude Longitude Altitude Speed Heading
2026-04-24 11:18 40.69635 -74.17445 27 ft 0 kts 41°
2026-04-24 11:20 40.69639 -74.17440 29 ft 2 kts 41°
2026-04-24 11:20 40.69651 -74.17427 26 ft 3 kts 41°
2026-04-24 11:20 40.69673 -74.17401 26 ft 5 kts 41°
2026-04-24 11:21 40.69699 -74.17355 26 ft 7 kts 62°
2026-04-24 11:21 40.69714 -74.17301 27 ft 5 kts 82°
2026-04-24 11:21 40.69720 -74.17253 24 ft 4 kts 70°
2026-04-24 11:21 40.69733 -74.17231 26 ft 3 kts 59°
2026-04-24 11:22 40.69731 -74.17201 24 ft 3 kts 117°
2026-04-24 11:22 40.69708 -74.17175 24 ft 5 kts 146°
2026-04-24 11:22 40.69670 -74.17146 26 ft 7 kts 154°
2026-04-24 11:22 40.69616 -74.17119 24 ft 9 kts 162°
2026-04-24 11:23 40.69548 -74.17091 25 ft 11 kts 162°
2026-04-24 11:23 40.69467 -74.17070 26 ft 12 kts 174°
2026-04-24 11:23 40.69379 -74.17072 24 ft 14 kts 189°
2026-04-24 11:23 40.69293 -74.17110 27 ft 12 kts 205°
2026-04-24 11:24 40.69209 -74.17164 26 ft 14 kts 206°
2026-04-24 11:24 40.69121 -74.17220 24 ft 13 kts 206°
2026-04-24 11:24 40.69041 -74.17271 28 ft 11 kts 206°
2026-04-24 11:24 40.68976 -74.17313 26 ft 8 kts 206°
2026-04-24 11:25 40.68936 -74.17338 27 ft 5 kts 205°
2026-04-24 11:25 40.68912 -74.17336 24 ft 3 kts 136°
2026-04-24 11:25 40.68899 -74.17305 25 ft 4 kts 114°
2026-04-24 11:25 40.68883 -74.17269 26 ft 5 kts 141°
2026-04-24 11:26 40.68855 -74.17270 25 ft 5 kts 197°
2026-04-24 11:26 40.68819 -74.17291 25 ft 7 kts 205°
2026-04-24 11:26 40.68772 -74.17321 25 ft 8 kts 206°
2026-04-24 11:26 40.68714 -74.17358 27 ft 10 kts 206°
2026-04-24 11:27 40.68646 -74.17402 26 ft 12 kts 206°
2026-04-24 11:27 40.68565 -74.17454 25 ft 14 kts 206°
2026-04-24 11:27 40.68473 -74.17512 25 ft 15 kts 206°
2026-04-24 11:27 40.68374 -74.17575 25 ft 16 kts 206°
2026-04-24 11:28 40.68309 -74.17617 26 ft 8 kts 206°
2026-04-24 11:28 40.68262 -74.17647 24 ft 7 kts 206°
2026-04-24 11:28 40.68232 -74.17661 28 ft 3 kts 177°
2026-04-24 11:28 40.68216 -74.17638 24 ft 4 kts 123°
2026-04-24 11:29 40.68197 -74.17593 24 ft 7 kts 116°
2026-04-24 11:29 40.68191 -74.17533 24 ft 7 kts 65°
2026-04-24 11:29 40.68216 -74.17511 26 ft 3 kts 18°
2026-04-24 11:29 40.68229 -74.17505 24 ft 0 kts 23°
2026-04-24 11:30 40.68230 -74.17505 24 ft 0 kts 23°
2026-04-24 11:30 40.68300 -74.17461 27 ft 39 kts 26°
2026-04-24 11:30 40.68756 -74.17171 26 ft 104 kts 26°
2026-04-24 11:30 40.69572 -74.16652 26 ft 154 kts 25°
2026-04-24 11:31 40.70619 -74.15982 296 ft 174 kts 24°
2026-04-24 11:31 40.71696 -74.15204 932 ft 176 kts 34°
2026-04-24 11:31 40.72597 -74.14126 1706 ft 175 kts 43°
2026-04-24 11:31 40.73455 -74.12974 2380 ft 178 kts 40°
2026-04-24 11:32 40.74324 -74.11808 3094 ft 179 kts 40°
2026-04-24 11:32 40.75202 -74.10623 3715 ft 183 kts 39°
2026-04-24 11:32 40.76196 -74.09610 4284 ft 178 kts 15°
2026-04-24 11:32 40.77369 -74.09335 4926 ft 169 kts 349°
2026-04-24 11:33 40.78474 -74.09769 5552 ft 164 kts 326°
2026-04-24 11:33 40.79299 -74.10769 6176 ft 165 kts 306°
2026-04-24 11:33 40.79790 -74.12228 6494 ft 186 kts 287°
2026-04-24 11:33 40.80002 -74.14007 6695 ft 214 kts 282°
2026-04-24 11:34 40.80206 -74.16029 7202 ft 224 kts 282°
2026-04-24 11:34 40.80316 -74.18155 7742 ft 243 kts 272°
2026-04-24 11:34 40.80026 -74.20422 8397 ft 252 kts 266°
2026-04-24 11:34 40.79702 -74.22690 9236 ft 253 kts 267°
2026-04-24 11:35 40.79388 -74.24980 10050 ft 254 kts 268°
2026-04-24 11:35 40.79074 -74.27322 10542 ft 268 kts 268°
2026-04-24 11:35 40.78743 -74.29837 10798 ft 289 kts 267°
2026-04-24 11:35 40.78388 -74.32546 11024 ft 309 kts 267°
2026-04-24 11:36 40.78014 -74.35405 11359 ft 324 kts 267°
2026-04-24 11:36 40.77623 -74.38388 11794 ft 334 kts 267°
2026-04-24 11:36 40.77225 -74.41422 12551 ft 337 kts 267°
2026-04-24 11:36 40.76822 -74.44489 13202 ft 342 kts 267°
2026-04-24 11:37 40.76413 -74.47586 13870 ft 346 kts 267°
2026-04-24 11:37 40.75997 -74.50728 14530 ft 349 kts 267°
2026-04-24 11:37 40.75579 -74.53885 15236 ft 351 kts 267°
2026-04-24 11:37 40.75155 -74.57079 15927 ft 354 kts 266°
2026-04-24 11:38 40.74729 -74.60277 16654 ft 356 kts 266°
2026-04-24 11:38 40.74297 -74.63517 17324 ft 360 kts 266°
2026-04-24 11:38 40.73863 -74.66776 17948 ft 363 kts 265°
2026-04-24 11:38 40.73422 -74.70066 18528 ft 366 kts 265°
2026-04-24 11:39 40.72975 -74.73394 19089 ft 369 kts 265°
2026-04-24 11:39 40.72526 -74.76738 19639 ft 372 kts 265°
2026-04-24 11:39 40.72072 -74.80105 20187 ft 375 kts 266°
2026-04-24 11:39 40.71612 -74.83505 20718 ft 378 kts 265°
2026-04-24 11:40 40.71149 -74.86928 21264 ft 381 kts 266°
2026-04-24 11:40 40.70679 -74.90384 21802 ft 384 kts 266°
2026-04-24 11:40 40.70205 -74.93865 22308 ft 387 kts 266°
2026-04-24 11:40 40.69728 -74.97364 22823 ft 390 kts 266°
2026-04-24 11:41 40.69244 -75.00901 23353 ft 393 kts 266°
2026-04-24 11:41 40.68762 -75.04419 23774 ft 396 kts 266°
2026-04-24 11:41 40.68001 -75.07946 24158 ft 410 kts 252°
2026-04-24 11:41 40.66598 -75.11260 24612 ft 416 kts 247°
2026-04-24 11:42 40.65136 -75.14568 24952 ft 421 kts 246°
2026-04-24 11:42 40.63638 -75.17905 25350 ft 424 kts 246°
2026-04-24 11:42 40.62124 -75.21242 25739 ft 427 kts 246°
2026-04-24 11:42 40.60588 -75.24612 26113 ft 430 kts 246°
2026-04-24 11:43 40.59040 -75.27997 26519 ft 432 kts 245°
2026-04-24 11:43 40.57483 -75.31399 26894 ft 435 kts 245°
2026-04-24 11:43 40.55914 -75.34823 27273 ft 438 kts 245°
2026-04-24 11:43 40.54338 -75.38260 27636 ft 441 kts 245°
2026-04-24 11:44 40.52746 -75.41725 27986 ft 444 kts 245°
2026-04-24 11:44 40.51141 -75.45214 28295 ft 448 kts 245°
2026-04-24 11:44 40.49520 -75.48735 28579 ft 452 kts 245°
2026-04-24 11:44 40.48442 -75.51075 28823 ft 453 kts 245°
2026-04-24 11:45 40.46807 -75.54620 29146 ft 456 kts 245°
2026-04-24 11:45 40.45159 -75.58188 29495 ft 458 kts 244°
2026-04-24 11:45 40.43509 -75.61759 29938 ft 457 kts 244°
2026-04-24 11:45 40.41856 -75.65329 30326 ft 457 kts 244°
2026-04-24 11:46 40.40206 -75.68888 30733 ft 456 kts 244°
2026-04-24 11:46 40.38558 -75.72439 31148 ft 455 kts 244°
2026-04-24 11:46 40.36914 -75.75976 31542 ft 454 kts 245°
2026-04-24 11:46 40.35269 -75.79513 31913 ft 454 kts 244°
2026-04-24 11:47 40.33624 -75.83047 32259 ft 454 kts 244°
2026-04-24 11:47 40.31975 -75.86583 32647 ft 453 kts 244°
2026-04-24 11:47 40.30355 -75.90055 33004 ft 453 kts 244°
2026-04-24 11:47 40.28710 -75.93577 33388 ft 452 kts 244°
2026-04-24 11:48 40.27069 -75.97087 33764 ft 452 kts 244°
2026-04-24 11:48 40.25426 -76.00595 33933 ft 451 kts 244°
2026-04-24 11:48 40.22161 -76.07556 33910 ft 447 kts 244°
2026-04-24 11:49 40.18902 -76.14492 33889 ft 448 kts 244°
2026-04-24 11:49 40.15626 -76.21444 33909 ft 449 kts 244°
2026-04-24 11:50 40.12358 -76.28379 33906 ft 448 kts 244°
2026-04-24 11:50 40.09137 -76.35369 33890 ft 448 kts 245°
2026-04-24 11:51 40.05933 -76.42297 33890 ft 445 kts 244°
2026-04-24 11:51 40.02734 -76.49202 33892 ft 445 kts 245°
2026-04-24 11:52 39.99526 -76.56124 33911 ft 446 kts 244°
2026-04-24 11:52 39.96312 -76.63044 33893 ft 446 kts 244°
2026-04-24 11:53 39.93090 -76.69966 33905 ft 446 kts 244°
2026-04-24 11:53 39.89867 -76.76871 33903 ft 447 kts 244°
2026-04-24 11:54 39.86635 -76.83784 33901 ft 447 kts 244°
2026-04-24 11:54 39.83399 -76.90689 33912 ft 448 kts 244°
2026-04-24 11:55 39.80152 -76.97602 33908 ft 448 kts 244°
2026-04-24 11:55 39.76915 -77.04477 33913 ft 448 kts 244°
2026-04-24 11:56 39.73653 -77.11392 33909 ft 448 kts 244°
2026-04-24 11:56 39.70392 -77.18290 33914 ft 448 kts 244°
2026-04-24 11:57 39.67130 -77.25174 33893 ft 448 kts 244°
2026-04-24 11:57 39.63851 -77.32078 33922 ft 450 kts 244°
2026-04-24 11:58 39.60563 -77.38987 33922 ft 449 kts 244°
2026-04-24 11:58 39.57276 -77.45877 33926 ft 450 kts 243°
2026-04-24 11:59 39.53991 -77.52749 33926 ft 449 kts 243°
2026-04-24 11:59 39.50700 -77.59618 33897 ft 448 kts 243°
2026-04-24 12:00 39.47419 -77.66451 33914 ft 450 kts 243°
2026-04-24 12:00 39.44111 -77.73326 33898 ft 450 kts 243°
2026-04-24 12:01 39.40795 -77.80205 33891 ft 450 kts 243°
2026-04-24 12:01 39.37705 -77.87201 33920 ft 445 kts 249°
2026-04-24 12:02 39.34922 -77.94350 33885 ft 445 kts 248°
2026-04-24 12:02 39.32087 -78.01480 33900 ft 448 kts 247°
2026-04-24 12:03 39.29226 -78.08641 33901 ft 448 kts 247°
2026-04-24 12:03 39.26362 -78.15792 33917 ft 448 kts 247°
2026-04-24 12:04 39.23493 -78.22939 33906 ft 448 kts 247°
2026-04-24 12:04 39.20620 -78.30078 33899 ft 448 kts 247°
2026-04-24 12:05 39.17761 -78.37166 33906 ft 444 kts 247°
2026-04-24 12:05 39.14926 -78.44178 33917 ft 445 kts 247°
2026-04-24 12:06 39.12063 -78.51246 33902 ft 444 kts 247°
2026-04-24 12:06 39.09199 -78.58297 33906 ft 445 kts 247°
2026-04-24 12:07 39.06328 -78.65349 33903 ft 445 kts 247°
2026-04-24 12:07 39.03455 -78.72391 33897 ft 445 kts 246°
2026-04-24 12:08 39.00577 -78.79430 33898 ft 443 kts 247°
2026-04-24 12:08 38.97712 -78.86431 33909 ft 443 kts 247°
2026-04-24 12:09 38.94847 -78.93428 33916 ft 443 kts 246°
2026-04-24 12:09 38.91978 -79.00419 33926 ft 443 kts 246°
2026-04-24 12:10 38.89104 -79.07409 33923 ft 443 kts 246°
2026-04-24 12:11 38.84750 -79.17983 33910 ft 446 kts 248°
2026-04-24 12:11 38.83738 -79.21667 33935 ft 433 kts 262°
2026-04-24 12:11 38.83064 -79.25431 33921 ft 434 kts 260°
2026-04-24 12:12 38.81671 -79.32953 33936 ft 434 kts 261°
2026-04-24 12:12 38.80310 -79.40479 33935 ft 434 kts 261°
2026-04-24 12:13 38.78944 -79.48031 33924 ft 437 kts 260°
2026-04-24 12:13 38.77564 -79.55633 33939 ft 437 kts 260°
2026-04-24 12:14 38.76183 -79.63213 33946 ft 437 kts 260°
2026-04-24 12:14 38.74793 -79.70810 33993 ft 437 kts 260°
2026-04-24 12:15 38.73411 -79.78336 34000 ft 438 kts 260°
2026-04-24 12:15 38.72009 -79.85937 33992 ft 439 kts 260°
2026-04-24 12:16 38.70598 -79.93560 33990 ft 440 kts 260°
2026-04-24 12:16 38.69183 -80.01173 33973 ft 439 kts 260°
2026-04-24 12:17 38.67773 -80.08736 33969 ft 436 kts 260°
2026-04-24 12:17 38.66358 -80.16295 33955 ft 436 kts 260°
2026-04-24 12:18 38.64936 -80.23852 33950 ft 438 kts 259°
2026-04-24 12:18 38.63506 -80.31430 33953 ft 438 kts 259°
2026-04-24 12:19 38.62069 -80.39012 33953 ft 438 kts 259°
2026-04-24 12:19 38.60627 -80.46595 33954 ft 439 kts 259°
2026-04-24 12:20 38.59182 -80.54166 33950 ft 439 kts 259°
2026-04-24 12:20 38.57726 -80.61762 33960 ft 441 kts 259°
2026-04-24 12:21 38.56263 -80.69369 33961 ft 441 kts 259°
2026-04-24 12:21 38.54794 -80.76975 33963 ft 441 kts 259°
2026-04-24 12:22 38.53318 -80.84590 33944 ft 441 kts 259°
2026-04-24 12:22 38.51848 -80.92146 33947 ft 437 kts 258°
2026-04-24 12:23 38.50384 -80.99644 33966 ft 439 kts 258°
2026-04-24 12:23 38.48901 -81.07212 33965 ft 439 kts 258°
2026-04-24 12:24 38.47413 -81.14776 33966 ft 439 kts 258°
2026-04-24 12:24 38.45920 -81.22340 33963 ft 439 kts 258°
2026-04-24 12:25 38.44423 -81.29894 33945 ft 440 kts 258°
2026-04-24 12:25 38.42915 -81.37479 33966 ft 441 kts 258°
2026-04-24 12:26 38.41399 -81.45072 33964 ft 441 kts 258°
2026-04-24 12:26 38.39881 -81.52648 33965 ft 441 kts 258°
2026-04-24 12:27 38.38357 -81.60230 33999 ft 441 kts 258°
2026-04-24 12:27 38.36837 -81.67768 33989 ft 442 kts 258°
2026-04-24 12:28 38.35297 -81.75391 33994 ft 438 kts 258°
2026-04-24 12:28 38.34861 -81.79191 33988 ft 432 kts 269°
2026-04-24 12:28 38.34695 -81.83020 33973 ft 434 kts 268°
2026-04-24 12:29 38.34302 -81.90640 33979 ft 434 kts 268°
2026-04-24 12:29 38.33918 -81.98321 33967 ft 434 kts 268°
2026-04-24 12:30 38.33531 -82.06006 33958 ft 434 kts 268°
2026-04-24 12:30 38.33139 -82.13674 33959 ft 434 kts 268°
2026-04-24 12:31 38.32742 -82.21343 33954 ft 434 kts 268°
2026-04-24 12:31 38.32340 -82.29018 33955 ft 434 kts 268°
2026-04-24 12:32 38.31933 -82.36694 33955 ft 434 kts 268°
2026-04-24 12:32 38.31520 -82.44379 33950 ft 437 kts 268°
2026-04-24 12:33 38.31171 -82.50803 33981 ft 438 kts 268°
2026-04-24 12:33 38.30746 -82.58536 33981 ft 438 kts 268°
2026-04-24 12:34 38.30316 -82.66272 33976 ft 438 kts 268°
2026-04-24 12:34 38.29882 -82.73999 33975 ft 438 kts 267°
2026-04-24 12:35 38.29442 -82.81735 33966 ft 439 kts 267°
2026-04-24 12:35 38.28995 -82.89484 33968 ft 439 kts 267°
2026-04-24 12:36 38.28544 -82.97241 33971 ft 439 kts 267°
2026-04-24 12:36 38.28087 -83.04995 33957 ft 439 kts 267°
2026-04-24 12:37 38.27625 -83.12752 33959 ft 439 kts 267°
2026-04-24 12:37 38.27160 -83.20460 33956 ft 440 kts 267°
2026-04-24 12:38 38.26688 -83.28212 33959 ft 439 kts 267°
2026-04-24 12:38 38.26211 -83.35963 33957 ft 439 kts 267°
2026-04-24 12:39 38.25241 -83.51469 34000 ft 439 kts 267°
2026-04-24 12:40 38.24749 -83.59204 33997 ft 438 kts 266°
2026-04-24 12:40 38.24253 -83.66924 34000 ft 438 kts 266°
2026-04-24 12:41 38.23752 -83.74647 33991 ft 438 kts 266°
2026-04-24 12:41 38.23247 -83.82352 33979 ft 438 kts 266°
2026-04-24 12:42 38.22736 -83.90073 33986 ft 438 kts 266°
2026-04-24 12:42 38.22221 -83.97773 33990 ft 436 kts 266°
2026-04-24 12:43 38.21703 -84.05454 33993 ft 436 kts 266°
2026-04-24 12:43 38.21181 -84.13146 33984 ft 436 kts 266°
2026-04-24 12:44 38.20654 -84.20829 33970 ft 436 kts 266°
2026-04-24 12:44 38.20117 -84.28466 33965 ft 436 kts 266°
2026-04-24 12:45 38.19576 -84.36150 33947 ft 436 kts 266°
2026-04-24 12:45 38.19030 -84.43834 33959 ft 436 kts 266°
2026-04-24 12:46 38.18480 -84.51516 33961 ft 436 kts 266°
2026-04-24 12:46 38.17925 -84.59196 33964 ft 436 kts 266°
2026-04-24 12:47 38.17364 -84.66882 33952 ft 436 kts 266°
2026-04-24 12:47 38.16797 -84.74578 33959 ft 438 kts 266°
2026-04-24 12:48 38.16224 -84.82286 33965 ft 438 kts 266°
2026-04-24 12:48 38.15646 -84.90000 33960 ft 438 kts 266°
2026-04-24 12:49 38.15063 -84.97713 33962 ft 438 kts 266°
2026-04-24 12:49 38.14475 -85.05414 33944 ft 438 kts 266°
2026-04-24 12:50 38.13881 -85.13126 33950 ft 438 kts 267°
2026-04-24 12:50 38.13287 -85.20777 33938 ft 438 kts 267°
2026-04-24 12:51 38.12684 -85.28479 33926 ft 438 kts 267°
2026-04-24 12:51 38.12072 -85.36230 33926 ft 438 kts 266°
2026-04-24 12:52 38.11463 -85.43879 33919 ft 438 kts 267°
2026-04-24 12:52 38.10847 -85.51578 33932 ft 438 kts 267°
2026-04-24 12:53 38.10254 -85.59264 33926 ft 438 kts 268°
2026-04-24 12:53 38.09710 -85.66959 33935 ft 438 kts 268°
2026-04-24 12:54 38.09156 -85.74661 33937 ft 438 kts 268°
2026-04-24 12:54 38.08598 -85.82351 33933 ft 438 kts 268°
2026-04-24 12:55 38.08035 -85.90040 33924 ft 438 kts 268°
2026-04-24 12:55 38.07466 -85.97732 33922 ft 438 kts 267°
2026-04-24 12:56 38.06892 -86.05420 33917 ft 438 kts 267°
2026-04-24 12:56 38.06314 -86.13106 33911 ft 438 kts 267°
2026-04-24 12:57 38.05734 -86.20754 33903 ft 438 kts 267°
2026-04-24 12:57 38.05145 -86.28438 33904 ft 438 kts 267°
2026-04-24 12:58 38.04551 -86.36125 33906 ft 438 kts 267°
2026-04-24 12:58 38.03952 -86.43814 33908 ft 438 kts 267°
2026-04-24 12:59 38.03348 -86.51492 33908 ft 438 kts 267°
2026-04-24 12:59 38.02739 -86.59182 33903 ft 438 kts 267°
2026-04-24 13:00 38.02125 -86.66862 33906 ft 438 kts 267°
2026-04-24 13:00 38.01507 -86.74541 33906 ft 438 kts 267°
2026-04-24 13:01 38.00881 -86.82235 33904 ft 438 kts 267°
2026-04-24 13:01 38.00257 -86.89865 33902 ft 438 kts 267°
2026-04-24 13:02 37.99623 -86.97543 33903 ft 437 kts 266°
2026-04-24 13:02 37.98986 -87.05195 33904 ft 436 kts 266°
2026-04-24 13:03 37.98344 -87.12846 33906 ft 436 kts 266°
2026-04-24 13:03 37.97698 -87.20491 33897 ft 436 kts 266°
2026-04-24 13:04 37.97046 -87.28141 33886 ft 436 kts 266°
2026-04-24 13:04 37.96389 -87.35798 33894 ft 437 kts 265°
2026-04-24 13:05 37.95726 -87.43450 33889 ft 437 kts 265°
2026-04-24 13:05 37.95058 -87.51113 33887 ft 437 kts 265°
2026-04-24 13:06 37.94387 -87.58762 33887 ft 437 kts 265°
2026-04-24 13:06 37.93710 -87.66431 33887 ft 437 kts 265°
2026-04-24 13:07 37.93035 -87.74030 33887 ft 437 kts 264°
2026-04-24 13:07 37.92418 -87.81752 33883 ft 438 kts 265°
2026-04-24 13:08 37.91815 -87.89366 33878 ft 438 kts 265°
2026-04-24 13:08 37.91201 -87.97040 33878 ft 438 kts 265°
2026-04-24 13:09 37.90271 -88.08547 33864 ft 438 kts 265°
2026-04-24 13:09 37.89646 -88.16201 33861 ft 436 kts 265°
2026-04-24 13:10 37.89018 -88.23823 33861 ft 436 kts 265°
2026-04-24 13:10 37.88385 -88.31458 33860 ft 436 kts 265°
2026-04-24 13:11 37.87746 -88.39089 33860 ft 436 kts 265°
2026-04-24 13:11 37.87103 -88.46718 33859 ft 436 kts 265°
2026-04-24 13:12 37.86453 -88.54371 33863 ft 438 kts 264°
2026-04-24 13:12 37.85801 -88.61986 33860 ft 438 kts 264°
2026-04-24 13:13 37.85140 -88.69647 33858 ft 438 kts 264°
2026-04-24 13:13 37.84474 -88.77301 33858 ft 438 kts 264°
2026-04-24 13:14 37.83802 -88.84970 33873 ft 438 kts 264°
2026-04-24 13:14 37.83130 -88.92593 33879 ft 434 kts 263°
2026-04-24 13:15 37.82454 -89.00189 33879 ft 434 kts 263°
2026-04-24 13:15 37.81775 -89.07771 33880 ft 435 kts 263°
2026-04-24 13:16 37.81089 -89.15373 33888 ft 434 kts 263°
2026-04-24 13:16 37.80398 -89.22963 33888 ft 434 kts 263°
2026-04-24 13:17 37.79705 -89.30539 33887 ft 432 kts 262°
2026-04-24 13:17 37.79013 -89.38034 33885 ft 432 kts 262°
2026-04-24 13:18 37.78312 -89.45585 33874 ft 432 kts 262°
2026-04-24 13:18 37.77607 -89.53125 33861 ft 432 kts 262°
2026-04-24 13:19 37.76896 -89.60673 33854 ft 432 kts 262°
2026-04-24 13:19 37.76180 -89.68218 33842 ft 432 kts 262°
2026-04-24 13:20 37.75460 -89.75756 33837 ft 432 kts 262°
2026-04-24 13:20 37.74736 -89.83293 33837 ft 432 kts 262°
2026-04-24 13:21 37.74007 -89.90824 33839 ft 432 kts 262°
2026-04-24 13:21 37.73273 -89.98351 33836 ft 432 kts 262°
2026-04-24 13:22 37.72537 -90.05853 33855 ft 429 kts 262°
2026-04-24 13:22 37.71798 -90.13334 33870 ft 429 kts 262°
2026-04-24 13:23 37.71056 -90.20801 33881 ft 428 kts 262°
2026-04-24 13:23 37.70310 -90.28245 33899 ft 427 kts 262°
2026-04-24 13:24 37.69687 -90.34437 33908 ft 427 kts 262°
2026-04-24 13:24 37.68934 -90.41872 33907 ft 427 kts 261°
2026-04-24 13:25 37.68178 -90.49291 33908 ft 426 kts 261°
2026-04-24 13:25 37.67417 -90.56712 33894 ft 426 kts 261°
2026-04-24 13:26 37.66652 -90.64127 33874 ft 426 kts 261°
2026-04-24 13:26 37.65882 -90.71536 33857 ft 426 kts 261°
2026-04-24 13:27 37.65113 -90.78900 33848 ft 425 kts 260°
2026-04-24 13:27 37.64337 -90.86274 33817 ft 423 kts 260°
2026-04-24 13:28 37.63560 -90.93627 33809 ft 423 kts 260°
2026-04-24 13:28 37.62777 -91.00984 33811 ft 423 kts 260°
2026-04-24 13:29 37.61990 -91.08329 33802 ft 423 kts 260°
2026-04-24 13:29 37.61199 -91.15675 33825 ft 422 kts 259°
2026-04-24 13:30 37.60411 -91.22944 33808 ft 416 kts 259°
2026-04-24 13:30 37.59623 -91.30177 33805 ft 416 kts 259°
2026-04-24 13:31 37.58831 -91.37401 33801 ft 416 kts 259°
2026-04-24 13:31 37.58034 -91.44630 33791 ft 416 kts 259°
2026-04-24 13:32 37.57234 -91.51846 33790 ft 416 kts 259°
2026-04-24 13:32 37.56428 -91.59068 33776 ft 416 kts 259°
2026-04-24 13:33 37.55625 -91.66232 33775 ft 416 kts 259°
2026-04-24 13:33 37.54811 -91.73452 33756 ft 416 kts 259°
2026-04-24 13:34 37.53993 -91.80665 33757 ft 416 kts 259°
2026-04-24 13:34 37.53170 -91.87875 33743 ft 416 kts 258°
2026-04-24 13:35 37.52344 -91.95083 33758 ft 415 kts 258°
2026-04-24 13:35 37.51516 -92.02267 33745 ft 415 kts 259°
2026-04-24 13:36 37.50681 -92.09463 33743 ft 415 kts 258°
2026-04-24 13:36 37.49844 -92.16646 33745 ft 415 kts 258°
2026-04-24 13:37 37.49002 -92.23828 33740 ft 415 kts 258°
2026-04-24 13:37 37.48156 -92.31004 33732 ft 416 kts 258°
2026-04-24 13:38 37.47298 -92.38250 33772 ft 420 kts 258°
2026-04-24 13:38 37.46432 -92.45520 33790 ft 420 kts 258°
2026-04-24 13:39 37.45562 -92.52781 33802 ft 420 kts 258°
2026-04-24 13:39 37.44694 -92.59993 33796 ft 420 kts 258°
2026-04-24 13:40 37.43813 -92.67269 33802 ft 421 kts 258°
2026-04-24 13:40 37.42924 -92.74576 33795 ft 423 kts 257°
2026-04-24 13:41 37.42032 -92.81878 33744 ft 422 kts 257°
2026-04-24 13:41 37.41137 -92.89178 33746 ft 423 kts 257°
2026-04-24 13:42 37.40235 -92.96486 33749 ft 422 kts 257°
2026-04-24 13:42 37.39331 -93.03784 33748 ft 422 kts 257°
2026-04-24 13:43 37.38419 -93.11106 33754 ft 426 kts 257°
2026-04-24 13:43 37.37496 -93.18477 33751 ft 426 kts 257°
2026-04-24 13:44 37.36568 -93.25847 33756 ft 427 kts 257°
2026-04-24 13:44 37.35458 -93.33087 33738 ft 421 kts 246°
2026-04-24 13:45 37.32728 -93.39531 33731 ft 418 kts 238°
2026-04-24 13:45 37.29857 -93.45881 33759 ft 418 kts 238°
2026-04-24 13:46 37.26953 -93.52203 33756 ft 418 kts 238°
2026-04-24 13:46 37.24040 -93.58517 33787 ft 418 kts 238°
2026-04-24 13:47 37.21119 -93.64835 33778 ft 418 kts 238°
2026-04-24 13:47 37.18196 -93.71145 33770 ft 418 kts 238°
2026-04-24 13:48 37.15268 -93.77454 33773 ft 420 kts 238°
2026-04-24 13:48 37.12331 -93.83769 33800 ft 419 kts 238°
2026-04-24 13:49 37.09399 -93.90064 33813 ft 418 kts 238°
2026-04-24 13:49 37.06467 -93.96345 33830 ft 418 kts 238°
2026-04-24 13:50 37.03532 -94.02621 33837 ft 418 kts 238°
2026-04-24 13:50 37.00594 -94.08891 33843 ft 418 kts 237°
2026-04-24 13:51 36.97652 -94.15159 33838 ft 418 kts 237°
2026-04-24 13:51 36.94703 -94.21429 33841 ft 417 kts 237°
2026-04-24 13:52 36.91766 -94.27661 33819 ft 416 kts 237°
2026-04-24 13:52 36.88820 -94.33902 33805 ft 419 kts 237°
2026-04-24 13:53 36.85878 -94.40126 33797 ft 418 kts 237°
2026-04-24 13:53 36.82930 -94.46394 33792 ft 419 kts 237°
2026-04-24 13:54 36.79992 -94.52658 33788 ft 418 kts 237°
2026-04-24 13:54 36.77047 -94.58924 33803 ft 418 kts 237°
2026-04-24 13:55 36.74114 -94.65152 33793 ft 415 kts 237°
2026-04-24 13:55 36.71184 -94.71364 33821 ft 416 kts 237°
2026-04-24 13:56 36.68254 -94.77563 33821 ft 415 kts 237°
2026-04-24 13:56 36.65317 -94.83765 33823 ft 416 kts 237°
2026-04-24 13:57 36.62373 -94.89970 33817 ft 417 kts 237°
2026-04-24 13:57 36.59419 -94.96186 33817 ft 417 kts 237°
2026-04-24 13:58 36.56464 -95.02392 33807 ft 416 kts 237°
2026-04-24 13:58 36.53511 -95.08581 33795 ft 416 kts 237°
2026-04-24 13:59 36.50554 -95.14769 33793 ft 416 kts 237°
2026-04-24 13:59 36.47593 -95.20953 33802 ft 416 kts 237°
2026-04-24 14:00 36.44627 -95.27136 33807 ft 416 kts 237°
2026-04-24 14:00 36.41663 -95.33302 33826 ft 416 kts 237°
2026-04-24 14:01 36.38679 -95.39500 33820 ft 420 kts 238°
2026-04-24 14:01 36.35681 -95.45715 33816 ft 419 kts 237°
2026-04-24 14:02 36.32688 -95.51910 33822 ft 419 kts 237°
2026-04-24 14:02 36.29684 -95.58115 33820 ft 419 kts 237°
2026-04-24 14:03 36.26701 -95.64265 33816 ft 419 kts 237°
2026-04-24 14:03 36.23693 -95.70458 33824 ft 419 kts 237°
2026-04-24 14:04 36.20663 -95.76687 33832 ft 426 kts 239°
2026-04-24 14:04 36.18966 -95.79683 33817 ft 426 kts 228°
2026-04-24 14:04 36.16922 -95.82336 33831 ft 427 kts 228°
2026-04-24 14:05 36.12885 -95.87721 33834 ft 427 kts 228°
2026-04-24 14:05 36.08828 -95.93082 33800 ft 427 kts 227°
2026-04-24 14:06 36.04770 -95.98432 33811 ft 426 kts 227°
2026-04-24 14:06 36.00707 -96.03778 33813 ft 426 kts 227°
2026-04-24 14:07 35.96646 -96.09114 33818 ft 427 kts 228°
2026-04-24 14:07 35.92559 -96.14476 33802 ft 431 kts 228°
2026-04-24 14:08 35.88524 -96.19758 33802 ft 408 kts 228°
2026-04-24 14:08 35.86614 -96.22257 33798 ft 392 kts 228°
2026-04-24 14:08 35.84783 -96.24651 33798 ft 378 kts 228°
2026-04-24 14:09 35.81200 -96.29330 33788 ft 374 kts 228°
2026-04-24 14:09 35.77629 -96.33985 33778 ft 374 kts 228°
2026-04-24 14:10 35.74083 -96.38602 33773 ft 373 kts 228°
2026-04-24 14:10 35.70513 -96.43243 33768 ft 374 kts 228°
2026-04-24 14:11 35.66942 -96.47881 33790 ft 371 kts 229°
2026-04-24 14:12 35.61683 -96.54697 33770 ft 365 kts 229°
2026-04-24 14:12 35.58185 -96.59224 33800 ft 365 kts 229°
2026-04-24 14:13 35.54677 -96.63757 33776 ft 369 kts 228°
2026-04-24 14:13 35.51128 -96.68337 33771 ft 370 kts 228°
2026-04-24 14:14 35.48153 -96.72170 33778 ft 370 kts 228°
2026-04-24 14:14 35.42827 -96.79025 33786 ft 370 kts 228°
2026-04-24 14:15 35.39277 -96.83585 33782 ft 370 kts 228°
2026-04-24 14:15 35.35736 -96.88128 33783 ft 366 kts 229°
2026-04-24 14:16 35.32217 -96.92636 33779 ft 366 kts 229°
2026-04-24 14:17 35.26950 -96.99372 33768 ft 371 kts 229°
2026-04-24 14:17 35.21589 -97.06215 33757 ft 371 kts 229°
2026-04-24 14:18 35.18015 -97.10769 33759 ft 371 kts 229°
2026-04-24 14:18 35.14443 -97.15314 33751 ft 371 kts 229°
2026-04-24 14:19 35.10871 -97.19854 33746 ft 371 kts 229°
2026-04-24 14:19 35.07294 -97.24393 33750 ft 371 kts 229°
2026-04-24 14:20 35.03720 -97.28922 33750 ft 370 kts 229°
2026-04-24 14:20 35.00136 -97.33458 33749 ft 373 kts 229°
2026-04-24 14:21 34.96524 -97.38024 33754 ft 374 kts 229°
2026-04-24 14:21 34.92912 -97.42583 33760 ft 374 kts 229°
2026-04-24 14:22 34.89305 -97.47130 33756 ft 373 kts 229°
2026-04-24 14:23 34.83885 -97.53949 33737 ft 373 kts 229°
2026-04-24 14:23 34.80273 -97.58487 33741 ft 373 kts 229°
2026-04-24 14:24 34.76673 -97.63004 33729 ft 370 kts 229°
2026-04-24 14:24 34.73086 -97.67497 33713 ft 372 kts 229°
2026-04-24 14:25 34.69462 -97.72032 33733 ft 373 kts 229°
2026-04-24 14:25 34.65868 -97.76524 33744 ft 373 kts 229°
2026-04-24 14:26 34.62249 -97.81039 33756 ft 373 kts 229°
2026-04-24 14:26 34.58625 -97.85555 33765 ft 373 kts 229°
2026-04-24 14:27 34.54999 -97.90069 33775 ft 373 kts 229°
2026-04-24 14:27 34.51380 -97.94567 33776 ft 373 kts 229°
2026-04-24 14:28 34.47760 -97.99062 33783 ft 370 kts 229°
2026-04-24 14:28 34.44162 -98.03521 33715 ft 370 kts 229°
2026-04-24 14:29 34.40559 -98.07982 33706 ft 370 kts 229°
2026-04-24 14:29 34.36957 -98.12436 33705 ft 370 kts 229°
2026-04-24 14:30 34.33959 -98.16138 33703 ft 370 kts 229°
2026-04-24 14:30 34.29750 -98.21329 33702 ft 370 kts 229°
2026-04-24 14:31 34.26141 -98.25773 33703 ft 370 kts 229°
2026-04-24 14:31 34.22535 -98.30209 33697 ft 370 kts 229°
2026-04-24 14:32 34.18954 -98.34608 33667 ft 370 kts 229°
2026-04-24 14:32 34.15345 -98.39037 33696 ft 369 kts 229°
2026-04-24 14:33 34.11740 -98.43456 33701 ft 369 kts 229°
2026-04-24 14:33 34.08136 -98.47869 33747 ft 369 kts 229°
2026-04-24 14:34 34.04532 -98.52276 33748 ft 369 kts 229°
2026-04-24 14:34 34.00895 -98.56716 33749 ft 378 kts 229°
2026-04-24 14:34 33.99003 -98.59008 33015 ft 395 kts 226°
2026-04-24 14:35 33.96777 -98.61022 32361 ft 403 kts 219°
2026-04-24 14:35 33.94464 -98.63013 31981 ft 415 kts 219°
2026-04-24 14:35 33.92077 -98.65073 31624 ft 427 kts 219°
2026-04-24 14:35 33.89652 -98.67159 31214 ft 431 kts 219°
2026-04-24 14:36 33.87206 -98.69260 30834 ft 434 kts 219°
2026-04-24 14:36 33.84746 -98.71372 30462 ft 436 kts 219°
2026-04-24 14:36 33.82270 -98.73496 30081 ft 438 kts 218°
2026-04-24 14:36 33.79786 -98.75625 29699 ft 440 kts 218°
2026-04-24 14:37 33.77286 -98.77768 29257 ft 442 kts 218°
2026-04-24 14:37 33.74764 -98.79927 28794 ft 447 kts 218°
2026-04-24 14:37 33.72235 -98.82090 28366 ft 448 kts 218°
2026-04-24 14:37 33.69689 -98.84266 27946 ft 449 kts 218°
2026-04-24 14:38 33.67136 -98.86447 27531 ft 450 kts 218°
2026-04-24 14:38 33.64582 -98.88627 27125 ft 451 kts 218°
2026-04-24 14:38 33.62022 -98.90811 26704 ft 452 kts 218°
2026-04-24 14:38 33.59453 -98.93000 26306 ft 453 kts 218°
2026-04-24 14:39 33.56879 -98.95192 25918 ft 454 kts 218°
2026-04-24 14:39 33.54303 -98.97384 25530 ft 455 kts 218°
2026-04-24 14:39 33.51727 -98.99574 25162 ft 453 kts 218°
2026-04-24 14:39 33.49161 -99.01754 24777 ft 451 kts 218°
2026-04-24 14:40 33.46610 -99.03920 24408 ft 448 kts 218°
2026-04-24 14:40 33.44071 -99.06075 24048 ft 446 kts 218°
2026-04-24 14:40 33.41453 -99.08060 23751 ft 448 kts 210°
2026-04-24 14:40 33.38484 -99.09245 23708 ft 456 kts 194°
2026-04-24 14:41 33.35282 -99.09458 23727 ft 467 kts 180°
2026-04-24 14:41 33.32064 -99.08783 23709 ft 475 kts 167°
2026-04-24 14:41 33.28969 -99.07331 23725 ft 479 kts 162°
2026-04-24 14:41 33.25871 -99.05860 23717 ft 478 kts 163°
2026-04-24 14:42 33.23821 -99.04908 23721 ft 478 kts 163°
2026-04-24 14:42 33.19663 -99.03003 23724 ft 478 kts 163°
2026-04-24 14:42 33.16560 -99.01589 23718 ft 478 kts 163°
2026-04-24 14:42 33.13448 -99.00173 23724 ft 478 kts 163°
2026-04-24 14:43 33.10378 -98.98779 23722 ft 478 kts 163°
2026-04-24 14:43 33.07269 -98.97367 23726 ft 478 kts 163°
2026-04-24 14:43 33.04160 -98.95956 23734 ft 478 kts 163°
2026-04-24 14:43 33.01043 -98.94543 23739 ft 478 kts 163°
2026-04-24 14:44 32.97937 -98.93137 23750 ft 478 kts 163°
2026-04-24 14:44 32.94829 -98.91729 23761 ft 478 kts 163°
2026-04-24 14:44 32.91720 -98.90323 23772 ft 478 kts 163°
2026-04-24 14:44 32.88608 -98.88916 23784 ft 478 kts 163°
2026-04-24 14:45 32.85499 -98.87512 23795 ft 478 kts 163°
2026-04-24 14:45 32.82384 -98.86104 23779 ft 479 kts 163°
2026-04-24 14:45 32.79267 -98.84700 23791 ft 480 kts 163°
2026-04-24 14:45 32.76139 -98.83291 23802 ft 480 kts 163°
2026-04-24 14:46 32.73014 -98.81884 23802 ft 480 kts 163°
2026-04-24 14:46 32.69899 -98.80482 23798 ft 480 kts 163°
2026-04-24 14:46 32.66776 -98.79078 23795 ft 480 kts 163°
2026-04-24 14:46 32.63650 -98.77674 23800 ft 480 kts 163°
2026-04-24 14:47 32.61588 -98.76748 23797 ft 480 kts 163°
2026-04-24 14:47 32.57447 -98.74889 23779 ft 480 kts 163°
2026-04-24 14:47 32.54311 -98.73482 23803 ft 482 kts 163°
2026-04-24 14:47 32.51179 -98.72080 23815 ft 483 kts 163°
2026-04-24 14:48 32.48030 -98.70671 23822 ft 484 kts 163°
2026-04-24 14:48 32.44875 -98.69260 23816 ft 484 kts 163°
2026-04-24 14:48 32.41727 -98.67853 23820 ft 484 kts 163°
2026-04-24 14:48 32.38576 -98.66446 23808 ft 484 kts 163°
2026-04-24 14:49 32.35432 -98.65043 23811 ft 484 kts 163°
2026-04-24 14:49 32.32283 -98.63639 23730 ft 484 kts 163°
2026-04-24 14:49 32.29128 -98.62231 23753 ft 485 kts 163°
2026-04-24 14:49 32.25966 -98.60824 23763 ft 486 kts 163°
2026-04-24 14:50 32.22801 -98.59416 23767 ft 486 kts 163°
2026-04-24 14:50 32.19636 -98.58009 23783 ft 486 kts 163°
2026-04-24 14:50 32.16475 -98.56605 23795 ft 486 kts 163°
2026-04-24 14:50 32.13309 -98.55199 23802 ft 486 kts 163°
2026-04-24 14:51 32.10187 -98.53815 23813 ft 486 kts 163°
2026-04-24 14:51 32.07020 -98.52411 23822 ft 486 kts 163°
2026-04-24 14:51 32.03849 -98.51006 23819 ft 486 kts 164°
2026-04-24 14:51 32.00683 -98.49605 23831 ft 486 kts 164°
2026-04-24 14:52 31.97518 -98.48205 23831 ft 486 kts 164°
2026-04-24 14:52 31.94352 -98.46806 23834 ft 486 kts 164°
2026-04-24 14:52 31.91186 -98.45407 23832 ft 486 kts 164°
2026-04-24 14:52 31.88017 -98.44009 23829 ft 486 kts 164°
2026-04-24 14:53 31.84852 -98.42613 23787 ft 486 kts 164°
2026-04-24 14:53 31.81689 -98.41219 23795 ft 486 kts 164°
2026-04-24 14:53 31.78521 -98.39824 23791 ft 486 kts 164°
2026-04-24 14:53 31.75357 -98.38431 23804 ft 486 kts 164°
2026-04-24 14:54 31.72194 -98.37040 23807 ft 486 kts 164°
2026-04-24 14:54 31.69032 -98.35651 23816 ft 485 kts 164°
2026-04-24 14:54 31.65871 -98.34263 23819 ft 485 kts 164°
2026-04-24 14:54 31.62705 -98.32874 23784 ft 486 kts 164°
2026-04-24 14:55 31.60605 -98.31953 23781 ft 486 kts 164°
2026-04-24 14:55 31.56373 -98.30099 23791 ft 486 kts 164°
2026-04-24 14:55 31.53209 -98.28713 23789 ft 486 kts 164°
2026-04-24 14:55 31.50047 -98.27330 23778 ft 486 kts 164°
2026-04-24 14:56 31.46917 -98.25965 22768 ft 488 kts 164°
2026-04-24 14:56 31.43700 -98.24564 21923 ft 484 kts 164°
2026-04-24 14:56 31.40570 -98.23196 21243 ft 477 kts 164°
2026-04-24 14:56 31.37477 -98.21843 20599 ft 470 kts 164°
2026-04-24 14:57 31.34476 -98.20532 20014 ft 463 kts 164°
2026-04-24 14:57 31.31479 -98.19224 19405 ft 457 kts 164°
2026-04-24 14:57 31.28507 -98.17929 18775 ft 453 kts 164°
2026-04-24 14:57 31.25570 -98.16650 18164 ft 449 kts 164°
2026-04-24 14:58 31.22655 -98.15381 17411 ft 446 kts 164°
2026-04-24 14:58 31.19753 -98.14120 16759 ft 442 kts 164°
2026-04-24 14:58 31.16890 -98.12877 16132 ft 438 kts 164°
2026-04-24 14:58 31.14042 -98.11641 15515 ft 433 kts 163°
2026-04-24 14:59 31.11233 -98.10423 14927 ft 429 kts 163°
2026-04-24 14:59 31.08450 -98.09216 14358 ft 424 kts 163°
2026-04-24 14:59 31.05695 -98.08023 13808 ft 420 kts 163°
2026-04-24 14:59 31.02982 -98.06848 13279 ft 414 kts 163°
2026-04-24 15:00 31.00288 -98.05683 12741 ft 409 kts 163°
2026-04-24 15:00 30.97641 -98.04537 12223 ft 404 kts 163°
2026-04-24 15:00 30.95030 -98.03408 11679 ft 396 kts 163°
2026-04-24 15:00 30.92479 -98.02305 11209 ft 387 kts 163°
2026-04-24 15:01 30.89981 -98.01225 10791 ft 377 kts 163°
2026-04-24 15:01 30.87565 -98.00181 10533 ft 364 kts 163°
2026-04-24 15:01 30.85243 -97.99176 10375 ft 348 kts 163°
2026-04-24 15:01 30.83018 -97.98215 10213 ft 334 kts 163°
2026-04-24 15:02 30.80877 -97.97292 10056 ft 322 kts 163°
2026-04-24 15:02 30.78814 -97.96404 9806 ft 313 kts 163°
2026-04-24 15:02 30.76782 -97.95530 9433 ft 309 kts 162°
2026-04-24 15:02 30.74799 -97.94678 9073 ft 307 kts 163°
2026-04-24 15:03 30.73458 -97.94103 8857 ft 305 kts 163°
2026-04-24 15:03 30.70826 -97.92974 8446 ft 302 kts 163°
2026-04-24 15:03 30.68856 -97.92131 8127 ft 301 kts 162°
2026-04-24 15:03 30.66898 -97.91291 7810 ft 299 kts 162°
2026-04-24 15:04 30.65580 -97.90726 7602 ft 298 kts 162°
2026-04-24 15:04 30.63642 -97.89896 7293 ft 296 kts 162°
2026-04-24 15:04 30.61728 -97.89076 6976 ft 290 kts 162°
2026-04-24 15:04 30.59853 -97.88274 6685 ft 284 kts 162°
2026-04-24 15:05 30.58017 -97.87489 6397 ft 279 kts 162°
2026-04-24 15:05 30.56229 -97.86725 6088 ft 275 kts 162°
2026-04-24 15:05 30.54444 -97.85962 5784 ft 270 kts 162°
2026-04-24 15:05 30.52703 -97.85218 5487 ft 265 kts 163°
2026-04-24 15:06 30.50990 -97.84487 5220 ft 259 kts 163°
2026-04-24 15:06 30.49366 -97.83687 5094 ft 248 kts 148°
2026-04-24 15:06 30.48149 -97.82324 5137 ft 242 kts 132°
2026-04-24 15:06 30.47059 -97.80871 5054 ft 235 kts 133°
2026-04-24 15:07 30.46014 -97.79466 5018 ft 226 kts 133°
2026-04-24 15:07 30.44995 -97.78089 5011 ft 225 kts 133°
2026-04-24 15:07 30.43979 -97.76713 4971 ft 224 kts 133°
2026-04-24 15:07 30.42923 -97.75380 4724 ft 223 kts 144°
2026-04-24 15:08 30.41676 -97.74414 4472 ft 211 kts 153°
2026-04-24 15:08 30.40436 -97.73535 4216 ft 207 kts 153°
2026-04-24 15:08 30.39223 -97.72679 3969 ft 201 kts 154°
2026-04-24 15:08 30.38044 -97.71847 3726 ft 197 kts 155°
2026-04-24 15:09 30.36879 -97.71030 3490 ft 194 kts 154°
2026-04-24 15:09 30.35746 -97.70238 3267 ft 190 kts 155°
2026-04-24 15:09 30.34619 -97.69447 3049 ft 185 kts 154°
2026-04-24 15:09 30.33517 -97.68686 2837 ft 182 kts 159°
2026-04-24 15:10 30.32369 -97.68245 2647 ft 166 kts 176°
2026-04-24 15:10 30.31248 -97.68170 2452 ft 157 kts 185°
2026-04-24 15:10 30.30190 -97.68166 2247 ft 152 kts 184°
2026-04-24 15:10 30.29132 -97.68142 2053 ft 151 kts 184°
2026-04-24 15:11 30.28086 -97.68113 1868 ft 148 kts 183°
2026-04-24 15:11 30.27056 -97.68088 1674 ft 148 kts 183°
2026-04-24 15:11 30.26063 -97.68057 1464 ft 138 kts 182°
2026-04-24 15:11 30.25124 -97.68029 1270 ft 138 kts 182°
2026-04-24 15:12 30.24152 -97.68004 1049 ft 144 kts 184°
2026-04-24 15:12 30.22176 -97.67960 720 ft 140 kts 180°
2026-04-24 15:12 30.21215 -97.67934 550 ft 138 kts 181°
2026-04-24 15:13 30.20333 -97.67911 530 ft 96 kts 178°
2026-04-24 15:13 30.19885 -97.67899 528 ft 51 kts 176°
2026-04-24 15:13 30.19599 -97.67883 529 ft 29 kts 175°
2026-04-24 15:13 30.19456 -97.67845 530 ft 17 kts 155°
2026-04-24 15:14 30.19396 -97.67759 530 ft 11 kts 103°
2026-04-24 15:14 30.19393 -97.67674 530 ft 6 kts 88°
2026-04-24 15:14 30.19395 -97.67615 530 ft 8 kts 88°
2026-04-24 15:14 30.19396 -97.67538 530 ft 11 kts 88°
2026-04-24 15:15 30.19398 -97.67454 530 ft 9 kts 88°
2026-04-24 15:15 30.19400 -97.67379 530 ft 8 kts 89°
2026-04-24 15:15 30.19416 -97.67328 530 ft 7 kts 34°
2026-04-24 15:15 30.19474 -97.67321 530 ft 10 kts 358°
2026-04-24 15:16 30.19552 -97.67324 530 ft 13 kts 358°
2026-04-24 15:16 30.19635 -97.67326 530 ft 11 kts 359°
2026-04-24 15:16 30.19713 -97.67327 530 ft 12 kts 359°
2026-04-24 15:16 30.19803 -97.67329 530 ft 14 kts 359°
2026-04-24 15:17 30.19902 -97.67331 530 ft 13 kts 358°
2026-04-24 15:17 30.19988 -97.67334 530 ft 12 kts 358°
2026-04-24 15:17 30.20048 -97.67336 530 ft 7 kts 358°
2026-04-24 15:17 30.20084 -97.67318 530 ft 5 kts 63°
2026-04-24 15:18 30.20088 -97.67266 530 ft 8 kts 89°
2026-04-24 15:18 30.20089 -97.67203 530 ft 9 kts 88°
2026-04-24 15:18 30.20091 -97.67132 530 ft 9 kts 88°
2026-04-24 15:18 30.20092 -97.67079 530 ft 6 kts 88°
2026-04-24 15:19 30.20093 -97.67026 530 ft 7 kts 88°
2026-04-24 15:19 30.20100 -97.66986 530 ft 3 kts 56°
2026-04-24 15:19 30.20124 -97.66970 530 ft 6 kts 22°
2026-04-24 15:19 30.20151 -97.66958 530 ft 2 kts 22°
2026-04-24 15:20 30.20166 -97.66951 530 ft 2 kts 22°
2026-04-24 15:20 30.20169 -97.66949 530 ft 0 kts 22°